Flag for Germany Weather past 2 weeks in Schwabach, Bavaria, Germany

57 °F

Passing clouds.

Feels Like: 57 °F
Forecast: 48 / 60 °F
Wind: 5 mph from Northwest

Location: Nuernberg

Current Time: Oct 7, 2015 at 11:32:16 PM

Latest Report: Oct 7, 2015 at 10:50 PM

Visibility: N/A

Pressure: 30.04 "Hg

Humidity: 82%

Dew point: 52 °F

Location of SchwabachLocation

Historic Weather in Schwabach — Graph


Schwabach temperature yesterday

Maximum temperature yesterday: 70 °F (at 1:50 PM)
Minimum temperature yesterday: 52 °F (at 12:50 AM)
Average temperature yesterday: 59 °F

Past Weeks' High & Low Weather Summary

High70 °F (Oct 2, 2:50 PM)100% (Sep 22, 10:50 PM)30.57 "Hg (Sep 22, 10:50 PM)
Low34 °F (Oct 2, 7:50 AM)30% (Oct 2, 2:20 PM)29.68 "Hg (Sep 22, 10:20 PM)
Average54 °F74%30.17 "Hg
* Reported Sep 22 10:20 PM — Oct 7 10:20 PM, Schwabach, Weather by CustomWeather, © 2015

Note: Actual official high and low records may vary slightly from our data, if they occured in-between our weather recording intervals... More about our weather records


Schwabach weather history for previous 24 hours

Time TempWeatherWind HumidityBarometerVisibility
10:20 PM
Wed, Oct 7
57 °FPassing clouds.6 mph82%30.04 "HgN/A
9:50 PM57 °FPassing clouds.6 mph82%30.04 "HgN/A
9:20 PM57 °FPassing clouds.5 mph82%30.01 "HgN/A
8:50 PM57 °FPassing clouds.5 mph82%30.01 "HgN/A
8:20 PM57 °FPassing clouds.5 mph82%30.01 "HgN/A
7:50 PM57 °FPassing clouds.6 mph82%30.01 "HgN/A
7:20 PM59 °FPartly sunny.8 mph77%29.98 "HgN/A
6:50 PM59 °FBroken clouds.12 mph77%29.98 "HgN/A
6:20 PM59 °FPartly sunny.13 mph77%29.98 "HgN/A
5:50 PM61 °FBroken clouds.6 mph77%29.95 "HgN/A
5:20 PM61 °FPartly sunny.5 mph77%29.95 "HgN/A
4:50 PM61 °FPartly sunny.8 mph77%29.95 "HgN/A
4:20 PM61 °FBroken clouds.13 mph77%29.95 "HgN/A
3:50 PM63 °FBroken clouds.14 mph77%29.92 "HgN/A
3:20 PM63 °FBroken clouds.8 mph77%29.92 "HgN/A
2:50 PM63 °FPartly sunny.5 mph83%29.92 "HgN/A
2:20 PM61 °FCool.8 mph88%29.92 "HgN/A
1:50 PM61 °FScattered showers. Broken clouds.12 mph88%29.92 "HgN/A
1:20 PM63 °FBroken clouds.3 mph83%29.92 "HgN/A
12:50 PM59 °FSprinkles. Broken clouds.14 mph94%29.92 "HgN/A
12:20 PM61 °FPartly sunny.5 mph88%29.92 "HgN/A
11:50 AM63 °FPartly sunny.8 mph83%29.92 "HgN/A
11:20 AM61 °FPartly sunny.10 mph88%29.89 "HgN/A
10:50 AM61 °FPartly sunny.7 mph88%29.89 "HgN/A
10:20 AM61 °FPartly sunny.7 mph88%29.89 "HgN/A
9:50 AM59 °FBroken clouds.3 mph94%29.89 "HgN/A
9:20 AM59 °FBroken clouds.1 mph94%29.86 "HgN/A
8:50 AM57 °FBroken clouds.1 mph100%29.86 "HgN/A
8:20 AM57 °FPartly cloudy.2 mph94%29.86 "Hg6 mi
7:50 AM57 °FPartly cloudy.2 mph94%29.83 "Hg5 mi
7:20 AM57 °FLight rain. Partly cloudy.2 mph94%29.83 "Hg5 mi
6:50 AM57 °FLight rain. Partly cloudy.2 mph94%29.83 "Hg6 mi
6:20 AM57 °FPassing clouds.3 mph94%29.83 "HgN/A
5:50 AM57 °FPartly cloudy.3 mph94%29.83 "HgN/A
5:20 AM57 °FLight rain. Passing clouds.3 mph94%29.83 "HgN/A
4:50 AM57 °FPassing clouds.2 mph94%29.83 "HgN/A
4:20 AM57 °FPassing clouds.3 mph94%29.83 "HgN/A
3:50 AM57 °FPassing clouds.3 mph94%29.83 "HgN/A
3:20 AM57 °FPassing clouds.3 mph94%29.80 "HgN/A
2:50 AM55 °FPassing clouds.3 mph100%29.80 "HgN/A
2:20 AM55 °FPartly cloudy.3 mph100%29.80 "HgN/A
1:50 AM55 °FPassing clouds.5 mph94%29.80 "HgN/A
1:20 AM55 °FPassing clouds.2 mph100%29.80 "HgN/A
12:50 AM57 °FPassing clouds.5 mph94%29.80 "HgN/A
12:20 AM57 °FPassing clouds.2 mph100%29.80 "HgN/A
11:50 PM
Tue, Oct 6
59 °FPassing clouds.5 mph94%29.80 "HgN/A
11:20 PM57 °FPartly cloudy.3 mph94%29.80 "HgN/A
Weather by CustomWeather, © 2015

See weather overviewHow to use our weather pages